Newport, RI

3:19 AM EDT on April 27, 2017 (GMT -0400)
Newport State

Weather History for KUUU - August, 2013

Change the Weather History Date:

Sunday, August 18, 2013

  Actual Average Record
Temperature  
Mean Temperature 66 °F -  
Max Temperature 73 °F 78 °F 93 °F (1987)
Min Temperature 59 °F 64 °F 52 °F (1979)
Cooling Degree Days 2    
Growing Degree Days 16 (Base 50)    
Moisture  
Dew Point 58 °F    
Average Humidity 78    
Maximum Humidity 94    
Minimum Humidity 55    
Precipitation  
Precipitation 0.00 in - - ()
Sea Level Pressure  
Sea Level Pressure 30.22 in    
Wind  
Wind Speed 1 mph (SE)    
Max Wind Speed 7 mph    
Max Gust Speed -    
Visibility 9 miles    
Events Rain    
Averages and records for this station are not official NWS values.
T = Trace of Precipitation, MM = Missing Value Source: NWS Daily Summary

Daily Weather History Graph

Daily Weather History Graph

Search for Another Location

Airport or City:

Trip Planner

Search our weather history database for the weather conditions in past years. The results will help you decide how hot, cold, wet, or windy it might be!

Date:

Astronomy

Aug. 18, 2013 Rise Set
Actual Time 5:57 AM EDT 7:39 PM EDT
Civil Twilight 5:27 AM EDT 8:09 PM EDT
Nautical Twilight 4:51 AM EDT 8:45 PM EDT
Astronomical Twilight 4:13 AM EDT 9:23 PM EDT
Moon 5:44 PM EDT (8/18) 3:01 AM EDT (8/18)
Length of Visible Light 14h 41m
Length of Day
13h 42m
Waxing Gibbous, 92% of the Moon is Illuminated
Aug 18
Waxing Gibbous
Aug 20
Full
Aug 28
Last Quarter
Sep 5
New
Sep 12
First Quarter

Hourly Weather History & Observations

Time (EDT) Temp. Dew Point Humidity Pressure Visibility Wind Dir Wind Speed Gust Speed Precip Events Conditions
12:53 AM 61.0 °F 57.9 °F 90% 30.27 in 2.5 mi Calm Calm - N/A   Clear
1:07 AM 60.8 °F 59.0 °F 94% 30.27 in 3.0 mi Calm Calm - N/A   Clear
1:53 AM 60.1 °F 57.9 °F 93% 30.26 in 6.0 mi Calm Calm - N/A   Clear
2:53 AM 61.0 °F 59.0 °F 93% 30.26 in 8.0 mi Calm Calm - N/A   Clear
3:53 AM 61.0 °F 57.9 °F 90% 30.26 in 10.0 mi Calm Calm - N/A   Clear
4:53 AM 60.1 °F 57.9 °F 93% 30.26 in 10.0 mi Calm Calm - N/A   Clear
5:53 AM 60.1 °F 57.9 °F 93% 30.26 in 10.0 mi Calm Calm - N/A   Clear
6:53 AM 61.0 °F 57.9 °F 90% 30.27 in 10.0 mi Calm Calm - N/A   Clear
7:53 AM 66.0 °F 63.0 °F 90% 30.27 in 10.0 mi Calm Calm - 0.00 in   Clear
8:53 AM 69.1 °F 61.0 °F 75% 30.27 in 10.0 mi Calm Calm - N/A   Clear
9:53 AM 70.0 °F 59.0 °F 68% 30.27 in 10.0 mi ESE 3.5 mph - N/A   Clear
10:53 AM 71.1 °F 57.0 °F 61% 30.27 in 10.0 mi SE 4.6 mph - N/A   Clear
11:53 AM 73.0 °F 59.0 °F 61% 30.26 in 10.0 mi South 4.6 mph - N/A   Clear
12:53 PM 73.9 °F 57.9 °F 57% 30.24 in 10.0 mi SE 5.8 mph - N/A   Clear
1:53 PM 72.0 °F 57.0 °F 59% 30.23 in 10.0 mi SSE 4.6 mph - N/A   Clear
2:53 PM 72.0 °F 55.0 °F 55% 30.21 in 10.0 mi SE 5.8 mph - N/A   Clear
3:53 PM 71.1 °F 55.0 °F 57% 30.19 in 10.0 mi SE 5.8 mph - N/A   Clear
4:53 PM 70.0 °F 55.0 °F 59% 30.17 in 10.0 mi SSE 6.9 mph - N/A   Clear
5:53 PM 69.1 °F 55.9 °F 63% 30.16 in 10.0 mi South 4.6 mph - N/A   Partly Cloudy
6:53 PM 66.9 °F 57.0 °F 70% 30.14 in 10.0 mi ESE 3.5 mph - 0.00 in   Mostly Cloudy
7:53 PM 66.0 °F 57.9 °F 75% 30.14 in 10.0 mi ESE 3.5 mph - 0.00 in Rain Light Rain
8:53 PM 64.0 °F 60.1 °F 87% 30.14 in 10.0 mi Calm Calm - 0.00 in   Scattered Clouds
9:53 PM 62.1 °F 60.1 °F 93% 30.13 in 10.0 mi Calm Calm - 0.00 in   Clear
10:53 PM 60.1 °F 57.9 °F 93% 30.10 in 10.0 mi SSE 4.6 mph - N/A   Clear
11:53 PM 59.0 °F 57.0 °F 93% 30.10 in 10.0 mi Calm Calm - N/A   Clear